Kimball, NE

4:08 PM MDT on March 28, 2017 (GMT -0600)
Kimball Municipal-Arraj

Weather History for KIBM - March, 2013

Change the Weather History Date:

Saturday, March 9, 2013

  Actual Average (KSNY) Record (KSNY)
Temperature  
Mean Temperature 31 °F -  
Max Temperature 37 °F 50 °F 78 °F (1972)
Min Temperature 26 °F 21 °F -1 °F (1969)
Degree Days  
Heating Degree Days 34    
Moisture  
Dew Point 26 °F    
Average Humidity 81    
Maximum Humidity 94    
Minimum Humidity 56    
Precipitation  
Precipitation 0.00 in - - ()
Sea Level Pressure  
Sea Level Pressure 29.75 in    
Wind  
Wind Speed 14 mph (North)    
Max Wind Speed 33 mph    
Max Gust Speed 39 mph    
Visibility 7 miles    
Events Snow , Thunderstorm    
Averages and records for this station are not official NWS values.
T = Trace of Precipitation, MM = Missing Value Source: NWS Daily Summary

Daily Weather History Graph

Daily Weather History Graph

Search for Another Location

Airport or City:

Trip Planner

Search our weather history database for the weather conditions in past years. The results will help you decide how hot, cold, wet, or windy it might be!

Date:

Astronomy

Mar. 09, 2013 Rise Set
Actual Time 7:15 AM CST 6:55 PM CST
Civil Twilight 6:48 AM CST 7:22 PM CST
Nautical Twilight 6:16 AM CST 7:54 PM CST
Astronomical Twilight 5:44 AM CST 8:26 PM CST
Moon 5:42 AM CST (3/9) 4:59 PM CST (3/9)
Length of Visible Light 12h 34m
Length of Day
11h 39m
Waning Crescent, 5% of the Moon is Illuminated
Mar 9
Waning Crescent
Mar 11
New
Mar 19
First Quarter
Mar 27
Full
Apr 2
Last Quarter

Hourly Weather History & Observations

Time (CST) Temp. Windchill Dew Point Humidity Pressure Visibility Wind Dir Wind Speed Gust Speed Precip Events Conditions
12:15 AM 32.4 °F 27.9 °F 29.1 °F 88% 29.68 in 10.0 mi NNW 4.6 mph - N/A   Scattered Clouds
12:35 AM 31.1 °F 25.4 °F 28.2 °F 89% 29.68 in 10.0 mi NNW 5.8 mph - N/A   Scattered Clouds
12:55 AM 32.0 °F 26.4 °F 29.3 °F 90% 29.68 in 10.0 mi NW 5.8 mph - N/A   Mostly Cloudy
1:15 AM 32.4 °F 26.0 °F 29.3 °F 88% 29.66 in 10.0 mi North 6.9 mph - N/A   Mostly Cloudy
1:35 AM 32.0 °F 26.4 °F 28.8 °F 88% 29.66 in 10.0 mi North 5.8 mph - N/A   Scattered Clouds
1:55 AM 32.0 °F 25.6 °F 28.8 °F 88% 29.66 in 10.0 mi North 6.9 mph - N/A   Clear
2:15 AM 32.0 °F 25.6 °F 29.3 °F 90% 29.66 in 10.0 mi NNW 6.9 mph - N/A   Scattered Clouds
2:35 AM 32.4 °F 23.5 °F 29.7 °F 90% 29.64 in 10.0 mi North 11.5 mph - N/A   Clear
2:55 AM 32.9 °F 25.9 °F 30.0 °F 89% 29.64 in 7.0 mi North 8.1 mph - N/A   Mostly Cloudy
3:15 AM 32.9 °F 28.5 °F 30.2 °F 90% 29.64 in 7.0 mi NNW 4.6 mph - N/A Thunderstorm Thunderstorm
3:35 AM 32.9 °F 26.7 °F 30.4 °F 90% 29.62 in 7.0 mi NNW 6.9 mph - N/A   Overcast
3:55 AM 33.1 °F 26.1 °F 30.2 °F 89% 29.62 in 7.0 mi NNW 8.1 mph - N/A   Overcast
4:15 AM 33.3 °F 25.1 °F 30.6 °F 90% 29.62 in 7.0 mi North 10.4 mph - N/A   Overcast
4:35 AM 32.9 °F 24.1 °F 30.0 °F 89% 29.61 in 7.0 mi NNW 11.5 mph - N/A   Overcast
4:55 AM 32.2 °F 22.7 °F 29.8 °F 91% 29.61 in 7.0 mi NNW 12.7 mph - N/A   Scattered Clouds
5:15 AM 32.0 °F 22.5 °F 30.0 °F 92% 29.63 in 5.0 mi NNE 12.7 mph - N/A   Mostly Cloudy
5:35 AM 32.0 °F 21.2 °F 29.8 °F 92% 29.64 in 5.0 mi North 16.1 mph - N/A   Overcast
5:55 AM 32.0 °F 21.6 °F 30.0 °F 92% 29.64 in 5.0 mi North 15.0 mph - N/A Snow Light Snow
6:15 AM 31.8 °F 21.0 °F 30.2 °F 94% 29.64 in 2.5 mi North 16.1 mph 23.0 mph N/A Snow Light Snow
6:35 AM 31.6 °F 20.4 °F 30.2 °F 94% 29.64 in 3.0 mi North 17.3 mph - N/A Snow Light Snow
6:55 AM 31.5 °F 19.8 °F 30.0 °F 94% 29.64 in 3.0 mi North 18.4 mph - N/A   Overcast
7:15 AM 31.1 °F 20.1 °F 29.7 °F 94% 29.65 in 4.0 mi NNW 16.1 mph - N/A   Overcast
7:35 AM 31.1 °F 19.7 °F 29.7 °F 94% 29.65 in 4.0 mi North 17.3 mph 20.7 mph N/A   Overcast
7:55 AM 30.9 °F 19.8 °F 29.3 °F 94% 29.66 in 2.0 mi North 16.1 mph 21.9 mph N/A   Overcast
8:15 AM 30.7 °F 18.5 °F 29.3 °F 94% 29.66 in 2.0 mi North 19.6 mph 26.5 mph N/A   Overcast
8:35 AM 30.9 °F 19.8 °F 29.3 °F 94% 29.68 in 2.5 mi North 16.1 mph 24.2 mph N/A Snow Light Snow
8:55 AM 31.1 °F 19.3 °F 29.3 °F 93% 29.68 in 2.0 mi North 18.4 mph 26.5 mph N/A Snow Light Snow
9:15 AM 31.1 °F 18.9 °F 29.3 °F 93% 29.68 in 2.5 mi North 19.6 mph 24.2 mph N/A Snow Light Snow
9:35 AM 31.3 °F 19.5 °F 29.5 °F 93% 29.69 in 3.0 mi North 18.4 mph 23.0 mph N/A   Overcast
9:55 AM 31.6 °F 19.7 °F 29.7 °F 92% 29.69 in 5.0 mi North 19.6 mph 23.0 mph N/A   Overcast
10:15 AM 32.0 °F 19.5 °F 29.3 °F 90% 29.69 in 7.0 mi North 21.9 mph 27.6 mph N/A   Overcast
10:35 AM 31.8 °F 19.0 °F 29.3 °F 90% 29.70 in 2.5 mi North 23.0 mph 26.5 mph N/A Snow Light Snow
10:55 AM 31.6 °F 20.4 °F 29.3 °F 91% 29.71 in 4.0 mi North 17.3 mph 28.8 mph N/A   Overcast
11:15 AM 31.8 °F 18.7 °F 28.8 °F 88% 29.71 in 3.0 mi North 24.2 mph 32.2 mph N/A Snow Light Snow
11:35 AM 31.5 °F 18.2 °F 28.6 °F 89% 29.71 in 1.5 mi North 24.2 mph 31.1 mph N/A Snow Light Snow
11:55 AM 31.1 °F 18.3 °F 28.4 °F 90% 29.72 in 1.2 mi North 21.9 mph 29.9 mph N/A Snow Light Snow
12:15 PM 31.1 °F 18.6 °F 28.2 °F 89% 29.72 in 1.2 mi North 20.7 mph 35.7 mph N/A Snow Light Snow
12:35 PM 31.1 °F 16.9 °F 28.4 °F 90% 29.73 in 1.0 mi North 27.6 mph 35.7 mph N/A Snow Light Snow
12:55 PM 31.5 °F 18.2 °F 28.4 °F 88% 29.73 in 1.2 mi North 24.2 mph 33.4 mph N/A Snow Light Snow
1:15 PM 31.6 °F 18.4 °F 28.8 °F 89% 29.73 in 1.2 mi North 24.2 mph 36.8 mph N/A Snow Light Snow
1:35 PM 32.0 °F 18.1 °F 28.9 °F 88% 29.73 in 2.5 mi North 27.6 mph 34.5 mph N/A Snow Light Snow
1:55 PM 31.8 °F 18.7 °F 29.3 °F 90% 29.73 in 1.5 mi North 24.2 mph 34.5 mph N/A Snow Light Snow
2:15 PM 32.0 °F 18.9 °F 29.3 °F 90% 29.73 in 1.2 mi North 24.2 mph 33.4 mph N/A Snow Light Snow
2:35 PM 32.0 °F 18.6 °F 30.0 °F 92% 29.73 in 1.5 mi North 25.3 mph 32.2 mph N/A Snow Light Snow
2:55 PM 33.3 °F 21.2 °F 30.0 °F 88% 29.73 in 10.0 mi North 21.9 mph 26.5 mph N/A   Overcast
3:15 PM 33.6 °F 21.9 °F 30.4 °F 88% 29.73 in 10.0 mi North 20.7 mph 31.1 mph N/A   Mostly Cloudy
3:35 PM 34.5 °F 24.1 °F 30.7 °F 86% 29.74 in 10.0 mi North 17.3 mph 24.2 mph N/A   Scattered Clouds
3:55 PM 36.7 °F 23.6 °F 28.0 °F 71% 29.74 in 10.0 mi North 32.2 mph 39.1 mph N/A   Mostly Cloudy
4:15 PM 36.9 °F 24.9 °F 26.6 °F 66% 29.75 in 10.0 mi North 26.5 mph 38.0 mph N/A   Scattered Clouds
4:35 PM 36.7 °F 23.8 °F 24.8 °F 62% 29.76 in 10.0 mi North 31.1 mph 38.0 mph N/A   Clear
4:55 PM 36.1 °F 23.7 °F 23.9 °F 61% 29.77 in 10.0 mi North 27.6 mph 38.0 mph N/A   Clear
5:15 PM 36.0 °F 23.0 °F 23.5 °F 61% 29.78 in 10.0 mi North 29.9 mph 34.5 mph N/A   Clear
5:35 PM 36.1 °F 23.9 °F 23.4 °F 60% 29.79 in 10.0 mi North 26.5 mph 33.4 mph N/A   Clear
5:55 PM 36.1 °F 22.6 °F 21.9 °F 56% 29.80 in 10.0 mi North 33.4 mph 38.0 mph N/A   Scattered Clouds
6:15 PM 35.8 °F 23.9 °F 21.7 °F 57% 29.82 in 10.0 mi North 24.2 mph 38.0 mph N/A   Scattered Clouds
6:35 PM 34.7 °F 23.4 °F 26.4 °F 72% 29.83 in 10.0 mi North 20.7 mph 27.6 mph N/A   Mostly Cloudy
6:55 PM 34.2 °F 22.1 °F 26.2 °F 73% 29.85 in 10.0 mi North 23.0 mph 27.6 mph N/A   Overcast
7:15 PM 33.8 °F 21.9 °F 22.3 °F 63% 29.86 in 10.0 mi North 21.9 mph 29.9 mph N/A   Overcast
7:35 PM 33.8 °F 21.9 °F 20.8 °F 59% 29.88 in 10.0 mi North 21.9 mph 31.1 mph N/A   Overcast
7:55 PM 33.8 °F 20.5 °F 19.6 °F 56% 29.89 in 10.0 mi North 27.6 mph 33.4 mph N/A   Overcast
8:15 PM 32.9 °F 21.0 °F 19.6 °F 58% 29.92 in 10.0 mi North 20.7 mph 34.5 mph N/A   Mostly Cloudy
8:35 PM 32.2 °F 20.7 °F 19.4 °F 59% 29.93 in 10.0 mi North 18.4 mph 27.6 mph N/A   Mostly Cloudy
8:55 PM 32.0 °F 20.8 °F 20.3 °F 62% 29.94 in 10.0 mi North 17.3 mph 32.2 mph N/A   Mostly Cloudy
9:15 PM 31.5 °F 18.8 °F 19.8 °F 62% 29.95 in 10.0 mi North 21.9 mph 31.1 mph N/A   Mostly Cloudy
9:35 PM 30.7 °F 18.1 °F 17.1 °F 57% 29.97 in 10.0 mi North 20.7 mph 27.6 mph N/A   Scattered Clouds
9:55 PM 29.5 °F 18.0 °F 16.3 °F 58% 29.98 in 10.0 mi North 16.1 mph - N/A   Clear
10:15 PM 28.6 °F 16.8 °F 16.5 °F 61% 29.99 in 10.0 mi North 16.1 mph 20.7 mph N/A   Clear
10:35 PM 28.0 °F 16.1 °F 16.7 °F 62% 30.00 in 10.0 mi North 16.1 mph - N/A   Clear
10:55 PM 27.1 °F 14.5 °F 16.7 °F 65% 30.00 in 10.0 mi North 17.3 mph - N/A   Clear
11:15 PM 27.3 °F 14.8 °F 16.7 °F 64% 30.00 in 10.0 mi North 17.3 mph - N/A   Scattered Clouds
11:35 PM 26.4 °F 13.6 °F 17.1 °F 68% 29.99 in 10.0 mi North 17.3 mph 21.9 mph N/A   Scattered Clouds
11:55 PM 26.8 °F 14.1 °F 16.9 °F 66% 30.01 in 10.0 mi NNW 17.3 mph - N/A   Scattered Clouds